EW6187 Weather Reports


time (UTC)temp
C
wind
direction
speed
KPH
gust
KPH
rain 1hr
cm
rain 24hr
cm
rain mn
cm
humidity
%
barometer
mb
20260502152204 13 158 1.6 4.8 0.00 0.10 0.10 75 1011.1
20260502151204 13 198 1.6 4.8 0.00 0.10 0.10 75 1011.0
20260502150704 12 163 1.6 4.8 0.00 0.10 0.10 77 1011.0
20260502150204 12 290 1.6 4.8 0.00 0.10 0.10 76 1011.2
20260502130704 10 21 0.0 3.2 0.00 0.10 0.10 90 1011.2
20260502130204 10 21 0.0 3.2 0.00 0.10 0.10 91 1011.2
20260502123704 9 85 1.6 1.6 0.05 0.10 0.10 93 1011.2
20260502123204 9 48 1.6 3.2 0.05 0.10 0.10 93 1011.4
20260502122204 9 50 1.6 3.2 0.05 0.10 0.10 93 1011.4
20260502121704 9 78 0.0 3.2 0.05 0.10 0.10 93 1011.5
20260502121204 9 89 0.0 3.2 0.05 0.10 0.10 93 1011.8
20260502120204 8 81 0.0 1.6 0.05 0.10 0.10 93 1011.8
20260502115204 8 65 0.0 3.2 0.05 0.10 0.10 93 1011.9
20260502114204 8 51 0.0 3.2 0.05 0.10 0.10 93 1011.9
20260502113704 8 51 0.0 1.6 0.00 0.05 0.05 93 1011.9
20260502113203 8 51 0.0 0.0 0.00 0.05 0.05 92 1012.0
20260502112704 8 51 0.0 3.2 0.00 0.05 0.05 92 1011.9
20260502112204 9 51 0.0 3.2 0.00 0.05 0.05 92 1011.9
20260502111703 9 51 0.0 3.2 0.00 0.05 0.05 92 1011.8
20260502111204 9 354 1.6 1.6 0.00 0.05 0.05 92 1011.9
20260502110704 9 304 0.0 0.0 0.00 0.05 0.05 92 1012.1
20260502105704 9 307 0.0 3.2 0.00 0.05 0.05 92 1011.7
20260502105204 9 307 0.0 0.0 0.00 0.05 0.05 92 1011.8
20260502104704 9 307 0.0 3.2 0.00 0.05 0.05 92 1011.7
20260502104204 9 263 0.0 0.0 0.03 0.05 0.05 91 1011.8
20260502103704 9 263 0.0 1.6 0.03 0.05 0.05 91 1011.9
20260502103205 9 205 0.0 3.2 0.03 0.05 0.05 91 1011.7
20260502102704 9 205 0.0 0.0 0.03 0.05 0.05 91 1011.5
20260502102204 9 205 0.0 0.0 0.03 0.05 0.05 91 1011.2
20260502101703 9 205 0.0 0.0 0.03 0.05 0.05 90 1011.2
20260502101204 9 205 0.0 0.0 0.03 0.05 0.05 90 1011.2
20260502100704 9 205 0.0 0.0 0.03 0.05 0.05 90 1011.3
20260502100204 9 205 0.0 0.0 0.05 0.05 0.05 90 1011.3
20260502091204 9 205 0.0 3.2 0.03 0.03 0.03 86 1011.1
20260502090205 9 205 0.0 0.0 0.00 0.00 0.00 86 1010.9
20260502071203 10 205 1.6 3.2 0.00 0.00 0.00 80 1011.1
20260502070704 10 111 0.0 3.2 0.00 0.00 0.00 80 1010.5
20260502070204 10 111 0.0 1.6 0.00 0.00 0.00 79 1010.4
20260502065704 10 159 1.6 3.2 0.00 0.00 0.00 79 1010.8
20260502064704 10 189 1.6 1.6 0.00 0.00 0.00 78 1011.1
20260502064204 10 223 1.6 3.2 0.00 0.00 0.00 78 1011.0
20260502063704 10 202 1.6 4.8 0.00 0.00 0.00 78 1011.1
20260502063204 10 194 0.0 3.2 0.00 0.00 0.00 77 1011.1
20260502062703 10 190 1.6 4.8 0.00 0.00 0.00 77 1011.2
20260502062204 10 209 1.6 4.8 0.00 0.00 0.00 76 1011.1
20260502061704 10 176 0.0 3.2 0.00 0.00 0.00 76 1010.9
20260502061204 10 227 1.6 4.8 0.00 0.00 0.00 75 1011.1
20260502060704 10 254 1.6 3.2 0.00 0.00 0.00 75 1011.3
20260502060204 10 243 1.6 4.8 0.00 0.00 0.00 75 1011.4
20260502055704 10 230 0.0 4.8 0.00 0.00 0.00 74 1011.3
20260502055204 10 210 1.6 4.8 0.00 0.00 0.00 74 1011.4
20260502054704 10 172 1.6 3.2 0.00 0.00 0.00 74 1010.9
20260502054204 10 204 1.6 3.2 0.00 0.00 0.00 74 1011.1
20260502053704 10 160 0.0 3.2 0.00 0.00 0.00 73 1011.1
20260502053204 11 175 0.0 3.2 0.00 0.00 0.00 73 1011.2
20260502052704 11 181 1.6 3.2 0.00 0.00 0.00 73 1011.1
20260502052204 11 220 0.0 3.2 0.00 0.00 0.00 73 1011.2
20260502051204 11 167 0.0 1.6 0.00 0.00 0.00 72 1011.1
20260502050704 11 167 0.0 1.6 0.00 0.00 0.00 72 1011.2
20260502045704 11 167 0.0 3.2 0.00 0.00 0.00 72 1011.3
20260502045204 11 166 1.6 3.2 0.00 0.00 0.00 72 1011.4
20260502044704 11 173 1.6 3.2 0.00 0.00 0.00 72 1011.3
20260502043203 11 206 1.6 4.8 0.00 0.00 0.00 71 1011.4
20260502042704 11 154 0.0 3.2 0.00 0.00 0.00 71 1011.4
20260502042203 11 154 0.0 1.6 0.00 0.00 0.00 71 1011.2
20260502041704 11 154 0.0 3.2 0.00 0.00 0.00 71 1011.2
20260502041205 11 154 0.0 1.6 0.00 0.00 0.00 71 1011.3
20260502040707 11 165 0.0 3.2 0.00 0.00 0.00 71 1011.3
20260502040204 11 182 0.0 3.2 0.00 0.00 0.00 71 1011.4
20260502035704 11 181 0.0 3.2 0.00 0.00 0.00 71 1011.2
20260502035204 11 181 0.0 3.2 0.00 0.00 0.00 70 1011.2
20260502034704 11 186 1.6 3.2 0.00 0.00 0.00 71 1011.3
20260502033704 11 148 1.6 3.2 0.00 0.00 0.00 70 1011.4
20260502033204 11 152 0.0 1.6 0.00 0.00 0.00 70 1011.4
20260502032704 11 153 0.0 3.2 0.00 0.00 0.00 70 1011.4
20260502032204 11 153 0.0 3.2 0.00 0.00 0.00 70 1011.5
20260502031704 11 208 1.6 4.8 0.00 0.00 0.00 70 1011.5
20260502030704 11 234 0.0 3.2 0.00 0.00 0.00 69 1011.4
20260502030203 11 234 0.0 3.2 0.00 0.00 0.00 69 1011.5
20260502025704 11 234 0.0 3.2 0.00 0.00 0.00 69 1011.5
20260502025204 11 225 0.0 3.2 0.00 0.00 0.00 68 1011.4
20260502024704 11 212 0.0 0.0 0.00 0.00 0.00 68 1011.5
20260502024204 11 212 0.0 3.2 0.00 0.00 0.00 68 1011.5
20260502023204 12 216 0.0 3.2 0.00 0.00 0.00 67 1011.5
20260502022704 12 147 0.0 1.6 0.00 0.00 0.00 67 1011.5
20260502022205 12 147 0.0 1.6 0.00 0.00 0.00 67 1011.4
20260502021703 12 150 1.6 1.6 0.00 0.00 0.00 67 1011.4
20260502021204 12 195 0.0 3.2 0.00 0.00 0.00 67 1011.4
20260502020704 12 155 1.6 3.2 0.00 0.00 0.00 67 1011.4
20260502020204 12 211 3.2 8.0 0.00 0.00 0.00 66 1011.5
20260502015704 12 195 1.6 4.8 0.00 0.00 0.00 66 1011.5
20260502015204 12 200 1.6 3.2 0.00 0.00 0.00 66 1011.5
20260502014704 12 199 0.0 3.2 0.00 0.00 0.00 66 1011.5
20260502014203 12 166 1.6 4.8 0.00 0.00 0.00 65 1011.3
20260502013204 12 173 1.6 3.2 0.00 0.00 0.00 64 1011.3
20260502012703 12 157 3.2 4.8 0.00 0.00 0.00 64 1011.2
20260502012204 12 170 1.6 4.8 0.00 0.00 0.00 64 1011.2
20260502011704 12 211 1.6 4.8 0.00 0.00 0.00 63 1011.2
20260502011204 12 185 1.6 4.8 0.00 0.00 0.00 63 1011.1
20260502010704 12 150 3.2 4.8 0.00 0.00 0.00 62 1011.0
20260502010203 12 171 1.6 4.8 0.00 0.00 0.00 62 1011.0
20260502005704 12 173 3.2 4.8 0.00 0.00 0.00 61 1011.0
20260502005204 13 190 3.2 8.0 0.00 0.00 0.00 61 1010.9
20260502004704 13 195 3.2 4.8 0.00 0.00 0.00 59 1010.9
20260502004204 13 160 3.2 4.8 0.00 0.00 0.00 58 1010.8
20260502003704 13 190 3.2 4.8 0.00 0.00 0.00 56 1010.7
20260502003204 13 164 3.2 4.8 0.00 0.00 0.00 54 1010.6
20260502002704 13 162 3.2 9.7 0.00 0.00 0.00 52 1010.5
20260502002204 13 216 4.8 4.8 0.00 0.00 0.00 51 1010.4
20260502001704 14 186 4.8 11.3 0.00 0.00 0.00 47 1010.3
20260502001203 14 182 3.2 4.8 0.00 0.00 0.00 46 1010.2
20260502000704 14 155 1.6 3.2 0.00 0.00 0.00 46 1010.2
20260502000204 15 155 0.0 1.6 0.00 0.00 0.00 45 1010.0
20260501235703 15 158 0.0 1.6 0.00 0.00 0.00 45 1010.0
20260501235204 15 159 1.6 1.6 0.00 0.00 0.00 44 1009.9
20260501234703 15 157 1.6 3.2 0.00 0.00 0.00 44 1009.8
20260501234204 15 167 0.0 3.2 0.00 0.00 0.00 43 1009.8
20260501233204 15 159 3.2 4.8 0.00 0.00 0.00 42 1009.6
20260501232704 16 204 1.6 4.8 0.00 0.00 0.00 42 1009.5
20260501232204 16 157 1.6 4.8 0.00 0.00 0.00 42 1009.5
20260501231704 16 213 1.6 4.8 0.00 0.00 0.00 41 1009.4
20260501231204 16 158 3.2 4.8 0.00 0.00 0.00 39 1009.3
20260501230703 16 228 1.6 4.8 0.00 0.00 0.00 38 1009.4
20260501225704 17 219 0.0 3.2 0.00 0.00 0.00 37 1009.2
20260501225204 17 208 1.6 3.2 0.00 0.00 0.00 36 1009.2
20260501224703 17 119 3.2 4.8 0.00 0.00 0.00 36 1009.2
20260501224203 17 181 1.6 4.8 0.00 0.00 0.00 36 1009.3
20260501223704 18 246 3.2 4.8 0.00 0.00 0.00 35 1009.1
20260501223204 18 314 1.6 4.8 0.00 0.00 0.00 36 1009.0
20260501222704 18 315 1.6 4.8 0.00 0.00 0.00 34 1009.0
20260501222203 18 281 1.6 3.2 0.00 0.00 0.00 34 1009.0
20260501221704 18 274 0.0 3.2 0.00 0.00 0.00 35 1009.1
20260501221203 18 265 1.6 4.8 0.00 0.00 0.00 34 1009.1
20260501220203 18 251 1.6 4.8 0.00 0.00 0.00 35 1009.0
20260501215704 18 300 4.8 9.7 0.00 0.00 0.00 34 1009.0
20260501215204 18 285 3.2 9.7 0.00 0.00 0.00 35 1009.1
20260501214704 18 326 1.6 4.8 0.00 0.00 0.00 37 1009.1
20260501214204 18 242 3.2 4.8 0.00 0.00 0.00 36 1009.1
20260501213703 18 228 1.6 3.2 0.00 0.00 0.00 36 1009.2
20260501213204 18 322 1.6 4.8 0.00 0.00 0.00 35 1009.2
20260501212704 18 348 3.2 8.0 0.00 0.00 0.00 36 1009.3
20260501211704 18 305 6.4 12.9 0.00 0.00 0.00 35 1009.2
20260501211204 18 347 1.6 3.2 0.00 0.00 0.00 34 1009.1
20260501205704 18 293 4.8 14.5 0.00 0.00 0.00 34 1009.2
20260501205204 18 303 3.2 9.7 0.00 0.00 0.00 37 1009.2
20260501204204 18 183 1.6 4.8 0.00 0.00 0.00 35 1008.9
20260501203703 18 312 0.0 9.7 0.00 0.00 0.00 35 1009.0
20260501203204 18 209 3.2 19.3 0.00 0.00 0.00 36 1009.1
20260501202704 18 247 6.4 19.3 0.00 0.00 0.00 35 1009.1
20260501202204 18 303 3.2 9.7 0.00 0.00 0.00 36 1009.1
20260501201703 18 12 0.0 4.8 0.00 0.00 0.00 37 1009.2
20260501201204 18 10 1.6 9.7 0.00 0.00 0.00 40 1009.0
20260501200704 18 21 1.6 4.8 0.00 0.00 0.00 37 1009.0
20260501200204 18 28 1.6 4.8 0.00 0.00 0.00 36 1009.2
20260501195704 18 293 3.2 11.3 0.00 0.00 0.00 35 1009.3
20260501195204 18 336 3.2 9.7 0.00 0.00 0.00 34 1009.3
20260501194704 18 258 4.8 14.5 0.00 0.00 0.00 35 1009.3
20260501194204 18 337 0.0 4.8 0.00 0.00 0.00 35 1009.2
20260501193704 18 340 1.6 4.8 0.00 0.00 0.00 41 1009.3
20260501193204 17 323 3.2 11.3 0.00 0.00 0.00 37 1009.3
20260501192204 17 290 1.6 4.8 0.00 0.00 0.00 40 1009.3
20260501191704 17 300 3.2 8.0 0.00 0.00 0.00 38 1009.3
20260501191204 17 34 1.6 11.3 0.00 0.00 0.00 36 1009.5
20260501190704 17 305 3.2 11.3 0.00 0.00 0.00 36 1009.8
20260501190204 17 339 3.2 11.3 0.00 0.00 0.00 39 1009.8
20260501185704 17 260 1.6 12.9 0.00 0.00 0.00 36 1009.7
20260501185204 17 258 3.2 9.7 0.00 0.00 0.00 37 1009.9
20260501184704 17 289 4.8 12.9 0.00 0.00 0.00 36 1010.0
20260501184204 17 283 3.2 12.9 0.00 0.00 0.00 36 1009.9
20260501183704 17 351 8.0 16.1 0.00 0.00 0.00 36 1009.9
20260501183204 17 244 1.6 4.8 0.00 0.00 0.00 39 1009.9
20260501182704 17 4 1.6 4.8 0.00 0.00 0.00 42 1009.9
20260501182204 17 92 1.6 4.8 0.00 0.00 0.00 40 1010.0
20260501181703 17 48 4.8 9.7 0.00 0.00 0.00 38 1009.9
20260501181204 17 35 1.6 9.7 0.00 0.00 0.00 40 1010.0
20260501180704 17 25 1.6 8.0 0.00 0.00 0.00 41 1010.1
20260501180204 17 313 4.8 9.7 0.00 0.00 0.00 37 1010.1
20260501175704 17 312 4.8 14.5 0.00 0.00 0.00 39 1010.2
20260501175203 16 245 3.2 9.7 0.00 0.00 0.00 38 1010.1
20260501174204 16 323 1.6 14.5 0.00 0.00 0.00 38 1010.1
20260501173704 16 313 3.2 12.9 0.00 0.00 0.00 37 1010.2
20260501173204 16 258 4.8 9.7 0.00 0.00 0.00 37 1010.2
20260501172204 16 260 6.4 16.1 0.00 0.00 0.00 39 1010.2
20260501171704 16 325 8.0 16.1 0.00 0.00 0.00 37 1010.3
20260501170704 16 305 8.0 14.5 0.00 0.00 0.00 41 1010.4
20260501170204 16 315 3.2 4.8 0.00 0.00 0.00 41 1010.3
20260501165704 16 226 3.2 9.7 0.00 0.00 0.00 42 1010.3
20260501165204 16 254 1.6 4.8 0.00 0.00 0.00 45 1010.4
20260501164704 16 321 3.2 12.9 0.00 0.00 0.00 48 1010.4
20260501163704 15 236 1.6 4.8 0.00 0.00 0.00 43 1010.5
20260501163203 15 263 4.8 9.7 0.00 0.00 0.00 48 1010.7
20260501162703 15 268 6.4 14.5 0.00 0.00 0.00 45 1010.7
20260501162204 15 322 6.4 16.1 0.00 0.00 0.00 44 1010.7
20260501161704 15 93 1.6 14.5 0.00 0.00 0.00 45 1010.7
20260501160204 14 271 4.8 14.5 0.00 0.00 0.00 50 1010.8
20260501155704 14 335 4.8 12.9 0.00 0.00 0.00 48 1010.9